Flag for Canada Weather past 2 weeks in Rothesay, New Brunswick, Canada

Now
75 °F

Passing clouds.


Feels Like: 77 °F
Forecast: 54 / 76 °F
Wind: 17 mph from Southwest

Location: Saint John

Current Time: Aug 3, 2015 at 3:21:38 PM

Latest Report: Aug 3, 2015 at 3:00 PM


Visibility: 15 mi

Pressure: 29.90 "Hg

Humidity: 65%

Dew point: 63 °F

Location of RothesayLocation

Historic Weather in Rothesay — Graph

°F

Rothesay temperature yesterday

Maximum temperature yesterday: 75 °F (at 2:00 PM)
Minimum temperature yesterday: 48 °F (at 5:00 AM)
Average temperature yesterday: 63 °F

Past Weeks' High & Low Weather Summary

 TemperatureHumidityPressure
High79 °F (Jul 29, 2:00 PM)100% (Jul 19, 2:00 PM)30.11 "Hg (Jul 19, 2:00 PM)
Low48 °F (Aug 1, 6:00 AM)48% (Jul 30, 3:00 PM)29.54 "Hg (Jul 22, 7:00 AM)
Average63 °F87%29.84 "Hg
* Reported Jul 19 2:00 PM — Aug 3 2:00 PM, Rothesay, Weather by CustomWeather, © 2015

Note: Actual official high and low records may vary slightly from our data, if they occured in-between our weather recording intervals... More about our weather records

Advertising

Rothesay weather history for previous 24 hours

 ConditionsComfort  
Time TempWeatherWind HumidityBarometerVisibility
2:00 PM
Mon, Aug 3
75 °FPassing clouds.16 mph57%29.90 "Hg15 mi
1:00 PM73 °FPassing clouds.17 mph61%29.92 "Hg15 mi
12:00 PM73 °FPassing clouds.15 mph65%29.92 "Hg15 mi
11:00 AM70 °FPassing clouds.14 mph73%29.93 "Hg15 mi
10:00 AM68 °FScattered clouds.15 mph78%29.93 "Hg15 mi
9:00 AM66 °FPartly sunny.14 mph78%29.92 "Hg15 mi
8:00 AM63 °FPartly sunny.8 mph83%29.92 "Hg15 mi
7:00 AM57 °FPassing clouds.5 mph94%29.92 "Hg15 mi
6:00 AM54 °FFog.No wind100%29.91 "Hg15 mi
5:00 AM54 °FPassing clouds.3 mph100%29.90 "Hg15 mi
4:00 AM54 °FClear.3 mph100%29.90 "Hg15 mi
3:00 AM54 °FClear.7 mph100%29.90 "Hg15 mi
2:00 AM54 °FClear.6 mph100%29.90 "Hg15 mi
1:00 AM55 °FClear.8 mph94%29.88 "Hg15 mi
12:00 AM55 °FClear.6 mph94%29.89 "Hg15 mi
11:00 PM
Sun, Aug 2
57 °FPassing clouds.3 mph88%29.89 "Hg15 mi
10:00 PM61 °FPassing clouds.7 mph77%29.88 "Hg15 mi
9:00 PM63 °FPassing clouds.6 mph73%29.86 "Hg15 mi
8:00 PM66 °FPassing clouds.8 mph68%29.86 "Hg15 mi
7:00 PM70 °FScattered clouds.13 mph57%29.85 "Hg15 mi
6:00 PM73 °FScattered clouds.16 mph50%29.84 "Hg15 mi
5:00 PM73 °FPartly sunny.13 mph53%29.83 "Hg15 mi
4:00 PM73 °FScattered clouds.22 mph53%29.83 "Hg15 mi
3:00 PM73 °FScattered clouds.17 mph57%29.83 "Hg15 mi
Weather by CustomWeather, © 2015

See weather overviewHow to use our weather pages